Flag for Luxembourg Weather past 2 weeks in Luxembourg, Luxembourg

Now
57 °F

Passing clouds.


Feels Like: 56 °F
Forecast: 48 / 69 °F
Wind: 6 mph from West

Location: Luxembourg Airport

Current Time: May 30, 2015 at 9:46:03 PM

Latest Report: May 30, 2015 at 8:50 PM


Visibility: N/A

Pressure: 30.04 "Hg

Humidity: 51%

Dew point: 39 °F

Location of LuxembourgLocation

Historic Weather in Luxembourg — Graph

°F

Luxembourg temperature yesterday

Maximum temperature yesterday: 59 °F (at 5:50 PM)
Minimum temperature yesterday: 46 °F (at 3:50 AM)
Average temperature yesterday: 53 °F

Past Weeks' High & Low Weather Summary

 TemperatureHumidityPressure
High68 °F (May 18, 4:50 PM)100% (May 16, 6:50 AM)30.33 "Hg (May 16, 6:50 AM)
Low37 °F (May 21, 5:20 AM)32% (May 21, 4:50 PM)29.71 "Hg (May 18, 9:20 PM)
Average54 °F70%30.07 "Hg
* Reported May 15 8:20 PM — May 30 8:50 PM, Luxembourg, Weather by CustomWeather, © 2015

Note: Actual official high and low records may vary slightly from our data, if they occured in-between our weather recording intervals... More about our weather records

Advertising

Luxembourg weather history for previous 24 hours

 ConditionsComfort  
Time TempWeatherWind HumidityBarometerVisibility
8:50 PM
Sat, May 30
57 °FPassing clouds.6 mph51%30.04 "HgN/A
8:20 PM57 °FPassing clouds.8 mph48%30.04 "HgN/A
7:50 PM59 °FPassing clouds.9 mph45%30.04 "HgN/A
7:20 PM59 °FPassing clouds.8 mph45%30.04 "HgN/A
6:50 PM57 °FPassing clouds.9 mph48%30.04 "HgN/A
6:20 PM57 °FPassing clouds.12 mph44%30.04 "HgN/A
5:50 PM59 °FPassing clouds.12 mph45%30.04 "HgN/A
5:20 PM59 °FPassing clouds.10 mph45%30.04 "HgN/A
4:50 PM59 °FPassing clouds.12 mph45%30.04 "HgN/A
4:20 PM61 °FScattered clouds.10 mph45%30.01 "HgN/A
3:50 PM57 °FScattered clouds.13 mph51%30.01 "HgN/A
3:20 PM57 °FScattered clouds.13 mph51%30.01 "HgN/A
2:50 PM57 °FScattered clouds.10 mph51%30.01 "HgN/A
2:20 PM57 °FScattered clouds.12 mph51%30.01 "HgN/A
1:50 PM57 °FBroken clouds.13 mph48%30.01 "HgN/A
1:20 PM57 °FPartly sunny.16 mph44%30.01 "HgN/A
12:50 PM55 °FPartly sunny.15 mph51%30.01 "HgN/A
12:20 PM54 °FPartly sunny.13 mph54%30.01 "HgN/A
11:50 AM55 °FPartly sunny.14 mph55%29.98 "HgN/A
11:20 AM52 °FPartly sunny.15 mph58%29.98 "HgN/A
10:50 AM52 °FBroken clouds.14 mph67%29.98 "HgN/A
10:20 AM52 °FScattered clouds.12 mph67%29.98 "HgN/A
9:50 AM50 °FScattered clouds.12 mph76%29.98 "HgN/A
9:20 AM50 °FScattered clouds.13 mph71%29.95 "HgN/A
8:50 AM48 °FPartly sunny.13 mph82%29.95 "HgN/A
8:20 AM48 °FScattered clouds.10 mph82%29.95 "HgN/A
7:50 AM48 °FScattered clouds.8 mph87%29.95 "HgN/A
7:20 AM46 °FPassing clouds.7 mph93%29.92 "HgN/A
6:50 AM46 °FPassing clouds.7 mph93%29.92 "HgN/A
6:20 AM46 °FPassing clouds.8 mph87%29.92 "HgN/A
5:50 AM46 °FPartly cloudy.8 mph93%29.89 "HgN/A
5:20 AM46 °FClear.10 mph93%29.89 "Hg10 mi
4:50 AM48 °FPassing clouds.10 mph87%29.89 "HgN/A
4:20 AM48 °FCool.13 mph94%29.89 "HgN/A
3:50 AM48 °FCool.12 mph94%29.86 "HgN/A
3:20 AM50 °FCool.12 mph94%29.86 "HgN/A
2:50 AM50 °FCool.13 mph94%29.86 "Hg6 mi
2:20 AM50 °FCool.9 mph94%29.86 "HgN/A
1:50 AM52 °FCool.14 mph88%29.86 "HgN/A
1:20 AM54 °FCool.13 mph82%29.86 "HgN/A
12:50 AM54 °FPassing clouds.7 mph82%29.86 "HgN/A
12:20 AM54 °FCool.8 mph82%29.86 "HgN/A
11:50 PM
Fri, May 29
54 °FPartly cloudy.7 mph82%29.86 "HgN/A
11:20 PM54 °FPartly cloudy.5 mph82%29.86 "HgN/A
10:50 PM54 °FPartly cloudy.6 mph82%29.86 "HgN/A
10:20 PM54 °FBroken clouds.7 mph77%29.86 "HgN/A
9:50 PM55 °FSunny.7 mph67%29.86 "Hg10 mi
9:20 PM55 °FPassing clouds.6 mph67%29.86 "HgN/A
Weather by CustomWeather, © 2015

See weather overviewHow to use our weather pages